C/2012 F6 ( Lemmon )

Japanese version
Home page
Updated on September 21, 2014

---------------------------------------------------------------------

* Profile

Discovery Date March 23, 2012
Magnitude 20.7 mag
Discoverer A. R. Gibbs (Mount Lemmon Survey)

* Pictures

* Orbital Elements

Epoch 2013 Mar. 9.0 TT = JDT 2456360.5
T 2013 Mar. 24.51505 TT                                 MPC
q   0.7312476            (2000.0)            P               Q
z  +0.0020238      Peri.  304.98801     +0.46128519     +0.76193479
 +/-0.0000001      Node   332.71473     -0.00393811     -0.51061790
e   0.9985201      Incl.   82.60800     -0.88724318     +0.39840273
From 3029 observations 2012 Jan. 22-2014 July 24, mean residual 0".4.

* Finding Charts

* Magnitudes Graph

        m1 = 4.5 + 5 log d + 18.0 log r  [   ,-50]  (             - 2013 Feb.  2)
        m1 = 5.2 + 5 log d + 10.0 log r  [-50,  0]  (2013 Feb.  2 - 2013 Mar. 24)
        m1 = 5.2 + 5 log d +  9.5 log r  [  0,240]  (2013 Mar. 24 - 2013 Nov. 19)
        m1 = 6.5 + 5 log d + 10.0 log r  [240,   ]  (2013 Nov. 19 -             )

        * Gray curve is:  m1 = 4.5 + 5 log d + 18.0 log r

---------------------------------------------------------------------

The orbital elements are published on M.P.E.C. 2014-P41.
The charts are made with StellaNavigator Ver.8 (AstroArts).
The magnitudes graphs are made with Comet for Windows.

---------------------------------------------------------------------

Copyright(C) Seiichi Yoshida (comet@aerith.net). All rights reserved.